Regional Weather Roundup
Issued by NWS

Home | Current Version | Previous Version | Text Only | Print | Product List | Glossary On
Versions: 1 2 3 4 5 6 7 8 9 10 11 12 13 14 15 16 17 18 19 20 21 22 23 24 25 26 27 28 29 30 31 32 33 34 35 36 37 38 39 40 41 42 43 44 45 46 47 48 49 50
000
ASUS43 KMKX 290621
RWRWI

WISCONSIN REGIONAL WEATHER ROUNDUP
NATIONAL WEATHER SERVICE MILWAUKEE/SULLIVAN WI
100 AM CDT SAT AUG 29 2015

NOTE: "FAIR" INDICATES FEW OR NO CLOUDS BELOW 12,000 FEET WITH NO
SIGNIFICANT WEATHER AND/OR OBSTRUCTIONS TO VISIBILITY.

WIZ001-002-006>008-014>016-023>028-290700-
NORTHWEST WISCONSIN

CITY           SKY/WX    TMP DP  RH WIND       PRES   REMARKS
SUPERIOR ARPT  FAIR      62  59  89 SW6       30.01R
6HR MIN TEMP:  62; 6HR MAX TEMP:  75;

ASHLAND        MOCLDY    62  61  96 SW6       30.04R
6HR MIN TEMP:  62; 6HR MAX TEMP:  73;

HAYWARD        FAIR      60  56  86 S8        30.05F
6HR MIN TEMP:  59; 6HR MAX TEMP:  71;

SIREN          FAIR      58  56  93 S3        30.04F
6HR MIN TEMP:  57; 6HR MAX TEMP:  72;

CUMBERLAND     FAIR      54  52  94 SE3       30.06F
RICE LAKE      FAIR      55  54  95 E3        30.08S
6HR MIN TEMP:  53; 6HR MAX TEMP:  69;

CHETEK         FAIR     N/A N/A N/A CALM      30.07F
LADYSMITH      FAIR      53  51  95 CALM      30.09F FOG
6HR MIN TEMP:  53; 6HR MAX TEMP:  69;

EAU CLAIRE     FAIR      55  53  93 NE5       30.06R
6HR MIN TEMP:  54; 6HR MAX TEMP:  64;

MENOMONIE      FAIR      56  54  94 CALM      30.06S
6HR MIN TEMP:  55; 6HR MAX TEMP:  65;

NEW RICHMOND   FAIR      53  53  99 CALM      30.06S FOG
6HR MIN TEMP:  53; 6HR MAX TEMP:  67;

OSCEOLA        FAIR      54  54 100 CALM      30.07F
6HR MIN TEMP:  54; 6HR MAX TEMP:  71;

$$

WIZ003>005-009-010-017-018-290700-
NORTH CENTRAL WISCONSIN

CITY           SKY/WX    TMP DP  RH WIND       PRES   REMARKS
MANITOWISH WTR MOCLDY    60  56  84 SW8       30.09S
6HR MIN TEMP:  60; 6HR MAX TEMP:  67;

ARBOR VITAE    FAIR      59  53  80 SW6       30.10R
6HR MIN TEMP:  59; 6HR MAX TEMP:  67;

WOODRUFF       FAIR      59  53  80 SW6       30.10R
6HR MIN TEMP:  59; 6HR MAX TEMP:  67;

RHINELANDER    CLOUDY    60  55  83 S8        30.11R
6HR MIN TEMP:  60; 6HR MAX TEMP:  66;

EAGLE RIVER    CLOUDY    60  53  78 SW9       30.10R
6HR MIN TEMP:  60; 6HR MAX TEMP:  67;

LAND O LAKES   MOCLDY    62  53  72 SW9       30.10R
6HR MIN TEMP:  61; 6HR MAX TEMP:  69; 6HR PCP:  0.01;

PHILLIPS       FAIR      55  54  95 S3        30.08F
6HR MIN TEMP:  56; 6HR MAX TEMP:  67;

TOMAHAWK       FAIR      54  52  94 CALM      30.10F
6HR MIN TEMP:  55; 6HR MAX TEMP:  65;

MEDFORD        FAIR      53  52  99 CALM      30.09S
6HR MIN TEMP:  52; 6HR MAX TEMP:  64;

MERRILL        CLOUDY    58  56  94 CALM      30.11S
6HR MIN TEMP:  59; 6HR MAX TEMP:  64;

$$

WIZ029-030-035-036-043>047-290700-
CENTRAL WISCONSIN

CITY           SKY/WX    TMP DP  RH WIND       PRES   REMARKS
WAUSAU         CLOUDY    59  55  87 CALM      30.08R
6HR MIN TEMP:  58; 6HR MAX TEMP:  63; 6HR PCP: TRACE;

MOSINEE        CLOUDY    55  54  94 CALM      30.10R
MARSHFIELD     CLOUDY    57  53  86 NE5       30.08R
6HR MIN TEMP:  56; 6HR MAX TEMP:  64; 6HR PCP: TRACE;

STEVENS POINT  MOCLDY    55  52  92 SE5       30.08F
6HR MIN TEMP:  55; 6HR MAX TEMP:  61; 6HR PCP:  0.03;

WAUPACA        DRIZZLE   59  58  97 SE5       30.09F
6HR MIN TEMP:  59; 6HR MAX TEMP:  63; 6HR PCP:  0.02;

WAUTOMA        CLOUDY    57  57 100 E5        30.09S
6HR MIN TEMP:  57; 6HR MAX TEMP:  63; 6HR PCP:  0.47;

WISC RAPIDS    LGT RAIN  57  54  89 SE8       30.08S
6HR MIN TEMP:  57; 6HR MAX TEMP:  63; 6HR PCP:  0.13;

CAMP DOUGLAS   CLOUDY    57  57 100 E6        30.04F
6HR MIN TEMP:  57; 6HR MAX TEMP:  59; 6HR PCP:  0.27;

$$

WIZ011>013-019>022-031-037>040-048>050-290700-
NORTHEAST WISCONSIN

CITY           SKY/WX    TMP DP  RH WIND       PRES   REMARKS
ANTIGO         CLOUDY    56  55  94 CALM      30.11R
SHAWANO        CLOUDY    60  56  85 CALM      30.11R
6HR MIN TEMP:  60; 6HR MAX TEMP:  66; 6HR PCP:  0.01;

OCONTO         CLOUDY    59  59 100 CALM      30.11S
6HR MIN TEMP:  59; 6HR MAX TEMP:  64;

STURGEON BAY   CLOUDY    61  54  77 SW12G17   30.14R
6HR MIN TEMP:  61; 6HR MAX TEMP:  64;

GREEN BAY      LGT RAIN  58  56  93 S6        30.11F
6HR MIN TEMP:  58; 6HR MAX TEMP:  64; 6HR PCP:  0.10;

MANITOWOC      RAIN      59  57  93 MISG      30.12F FOG
6HR MIN TEMP:  59; 6HR MAX TEMP:  64;

APPLETON       CLOUDY    55  55 100 SE5       30.09S
CLINTONVILLE   CLOUDY    57  55  94 CALM      30.09S
OSHKOSH        LGT RAIN  57  54  89 E5        30.09F
6HR MIN TEMP:  57; 6HR MAX TEMP:  65; 6HR PCP:  0.69;

$$

WIZ032>034-041-042-053>061-290700-
SOUTHWEST WISCONSIN

CITY           SKY/WX    TMP DP  RH WIND       PRES   REMARKS
LA CROSSE      CLOUDY    60  58  92 CALM      30.01R
6HR MIN TEMP:  59; 6HR MAX TEMP:  60; 6HR PCP:  0.21;

SPARTA         CLOUDY    58  57  95 E6        30.04S
6HR MIN TEMP:  57; 6HR MAX TEMP:  58; 6HR PCP:  0.04;

VIROQUA        CLOUDY    58  58 100 E9        30.01F
6HR MIN TEMP:  57; 6HR MAX TEMP:  58; 6HR PCP:  0.13;

BOSCOBEL       RAIN      63  61  93 NE6       29.99F FOG
6HR MIN TEMP:  63; 6HR MAX TEMP:  64; 6HR PCP:  0.92;

PRAIRIE DU CHI DRIZZLE   63  61  95 E9        29.97F
6HR MIN TEMP:  61; 6HR MAX TEMP:  63; 6HR PCP:  1.10;

PLATTEVILLE    CLOUDY    64  64  98 SE8       29.98S
6HR MIN TEMP:  64; 6HR MAX TEMP:  64; 6HR PCP:  1.11;

$$

WIZ056-057-062-063-064-067-068-290700-
SOUTH CENTRAL WISCONSIN

CITY           SKY/WX    TMP DP  RH WIND       PRES   REMARKS
REEDSBURG      DRIZZLE   56  56  98 E5        30.05F
6HR MIN TEMP:  56; 6HR MAX TEMP:  60; 6HR PCP:  0.58;

BARABOO/DELLS  DRIZZLE   56  55  94 E10       30.05F
6HR MIN TEMP:  56; 6HR MAX TEMP:  60; 6HR PCP:  0.57;

LONE ROCK      RAIN      62  60  93 E9        30.02F FOG
6HR MIN TEMP:  62; 6HR MAX TEMP:  64; 6HR PCP:  1.26;

MINERAL POINT  HVY RAIN  64  63  94 E12G17    30.00F
MADISON        HVY RAIN  60  58  92 E3        30.04F FOG
6HR MIN TEMP:  60; 6HR MAX TEMP:  64; 6HR PCP:  0.62;

MIDDLETON      CLOUDY    63  62  97 E3        30.05R
6HR MIN TEMP:  62; 6HR MAX TEMP:  65; 6HR PCP:  0.66;

WATERTOWN      LGT RAIN  60  60 100 E10G16    30.05F
6HR MIN TEMP:  59; 6HR MAX TEMP:  64; 6HR PCP:  0.33;

MONROE         LGT RAIN  63  61  94 SE14      30.02S
JANESVILLE     DRIZZLE   64  63  94 SE12      30.03F
$$

WIZ051-052-058>065-066-070>072-290700-
SOUTHEAST WISCONSIN

CITY           SKY/WX    TMP DP  RH WIND       PRES   REMARKS
MILWAUKEE      RAIN      63  61  93 E15       30.07F FOG
6HR MIN TEMP:  61; 6HR MAX TEMP:  67; 6HR PCP:  0.10;

WAUKESHA       RAIN      61  59  94 NE3       30.11R
MILWAUKEE/TIMM LGT RAIN  59  55  88 CALM      30.10R
RACINE         RAIN      65  62  90 E10       30.10F FOG
6HR MIN TEMP:  62; 6HR MAX TEMP:  67; 6HR PCP:  0.04;

BURLINGTON     DRIZZLE   62  60  96 E7        30.07R
6HR MIN TEMP:  61; 6HR MAX TEMP:  63; 6HR PCP:  0.08;

KENOSHA        LGT RAIN  65  63  93 E9        30.09S FOG
6HR MIN TEMP:  63; 6HR MAX TEMP:  68; 6HR PCP:  0.01;

FOND DU LAC    RAIN      59  57  93 E8        30.09F
6HR MIN TEMP:  59; 6HR MAX TEMP:  66; 6HR PCP:  0.63;

SHEBOYGAN      RAIN      59  57  93 N6        30.10F FOG
6HR MIN TEMP:  59; 6HR MAX TEMP:  66; 6HR PCP:  0.22;

WEST BEND      HVY RAIN  57  55  94 CALM      30.11R
JUNEAU         LGT RAIN  57  56  97 NE8       30.08F
6HR MIN TEMP:  57; 6HR MAX TEMP:  64; 6HR PCP:  0.01;

$$

LSZ147-162-290700-
LAKE SUPERIOR

STATION/POSITION TIME  TEMP    WIND        PRES    WAVE
                       AIR SEA DIR/SP/G            HT/PER
                 (UTC) (F)     (DEG/KT/KT) (MB)    (FT/S)
W MID LAKE BUOY  0550   61 56  330/ 12/ 16 1017.3R   2/ 4
DEVILS ISLAND    0600   62     260/ 10/ 12 1016.8R
PORT WING        0540   66     200/  6/ 13 1016.6R
SAXON HARBOR     0500   67     200/  6/ 13 1016.3R
$$

LMZ867-665-643>646-290700-
LAKE MICHIGAN

STATION/POSITION TIME  TEMP    WIND        PRES    WAVE
                       AIR SEA DIR/SP/G            HT/PER


USA.gov is the U.S. government's official web portal to all federal, state and local government web resources and services.